05-08-2023, 00:00:04,    288,    0.0,   12.4,   0.00,   0.00, 1013.1,   75.3, -999.0
05-08-2023, 00:00:14,    289,    0.0,   12.5,   0.00,   0.00, 1013.1,   75.4, -999.0
05-08-2023, 00:00:24,    288,    0.0,   12.5,   0.00,   0.00, 1013.1,   75.2, -999.0
05-08-2023, 00:00:34,    288,    0.0,   12.3,   0.00,   0.00, 1013.1,   75.0, -999.0
05-08-2023, 00:00:44,    288,    0.0,   12.5,   0.00,   0.00, 1013.1,   74.9, -999.0
05-08-2023, 00:00:54,    288,    0.0,   12.4,   0.00,   0.00, 1013.1,   74.9, -999.0
05-08-2023, 00:01:04,    289,    0.0,   12.5,   0.00,   0.00, 1013.1,   75.1, -999.0
05-08-2023, 00:01:14,    288,    0.0,   12.5,   0.00,   0.00, 1013.1,   75.3, -999.0
05-08-2023, 00:01:24,    288,    0.0,   12.5,   0.00,   0.00, 1013.1,   75.6, -999.0
05-08-2023, 00:01:34,    288,    0.0,   12.5,   0.00,   0.00, 1013.1,   75.5, -999.0
05-08-2023, 00:01:43,    288,    0.0,   12.5,   0.00,   0.00, 1013.1,   75.4, -999.0
05-08-2023, 00:01:54,    288,    0.0,   12.4,   0.00,   0.00, 1013.1,   74.9, -999.0
05-08-2023, 00:02:04,    289,    0.0,   12.5,   0.00,   0.00, 1013.1,   74.7, -999.0
05-08-2023, 00:02:13,    288,    0.0,   12.4,   0.00,   0.00, 1013.1,   74.7, -999.0
05-08-2023, 00:02:23,    288,    0.0,   12.5,   0.00,   0.00, 1013.1,   74.6, -999.0
05-08-2023, 00:02:34,    288,    0.0,   12.5,   0.00,   0.00, 1013.1,   74.6, -999.0
05-08-2023, 00:02:44,    288,    0.0,   12.5,   0.00,   0.00, 1013.1,   74.3, -999.0
05-08-2023, 00:02:53,    288,    0.0,   12.5,   0.00,   0.00, 1013.1,   74.2, -999.0
05-08-2023, 00:03:03,    288,    0.0,   12.5,   0.00,   0.00, 1013.1,   74.6, -999.0
05-08-2023, 00:03:14,    288,    0.0,   12.5,   0.00,   0.00, 1013.1,   74.5, -999.0
05-08-2023, 00:03:23,    288,    0.0,   12.5,   0.00,   0.00, 1013.1,   74.5, -999.0
05-08-2023, 00:03:33,    288,    0.0,   12.5,   0.00,   0.00, 1013.1,   74.5, -999.0
05-08-2023, 00:03:43,    288,    0.0,   12.6,   0.00,   0.00, 1013.1,   74.5, -999.0
05-08-2023, 00:03:54,    289,    0.0,   12.6,   0.00,   0.00, 1013.1,   74.6, -999.0
05-08-2023, 00:04:03,    288,    0.0,   12.7,   0.00,   0.00, 1013.1,   74.4, -999.0
05-08-2023, 00:04:13,    288,    0.0,   12.6,   0.00,   0.00, 1013.1,   74.3, -999.0
05-08-2023, 00:04:23,    288,    0.0,   12.6,   0.00,   0.00, 1013.1,   74.2, -999.0
05-08-2023, 00:04:33,    288,    0.0,   12.6,   0.00,   0.00, 1013.1,   74.3, -999.0
05-08-2023, 00:04:43,    288,    0.0,   12.6,   0.00,   0.00, 1013.1,   74.1, -999.0
05-08-2023, 00:04:53,    288,    0.0,   12.6,   0.00,   0.00, 1013.1,   74.0, -999.0
05-08-2023, 00:05:03,    288,    0.0,   12.6,   0.00,   0.00, 1013.1,   74.0, -999.0
05-08-2023, 00:05:13,    288,    0.0,   12.5,   0.00,   0.00, 1013.1,   74.1, -999.0
05-08-2023, 00:05:23,    288,    0.0,   12.6,   0.00,   0.00, 1013.1,   74.1, -999.0
05-08-2023, 00:05:33,    289,    0.0,   12.5,   0.00,   0.00, 1013.1,   74.1, -999.0
05-08-2023, 00:05:43,    288,    0.0,   12.5,   0.00,   0.00, 1013.1,   74.1, -999.0
05-08-2023, 00:05:53,    289,    0.0,   12.5,   0.00,   0.00, 1013.1,   74.1, -999.0
05-08-2023, 00:06:03,    289,    0.0,   12.5,   0.00,   0.00, 1013.1,   74.1, -999.0
05-08-2023, 00:06:13,    288,    0.0,   12.5,   0.00,   0.00, 1013.1,   74.2, -999.0
05-08-2023, 00:06:23,    288,    0.0,   12.5,   0.00,   0.00, 1013.1,   74.2, -999.0
05-08-2023, 00:06:33,    288,    0.0,   12.5,   0.00,   0.00, 1013.1,   74.2, -999.0
05-08-2023, 00:06:43,    289,    0.0,   12.4,   0.00,   0.00, 1013.1,   74.1, -999.0
05-08-2023, 00:06:53,    288,    0.0,   12.5,   0.00,   0.00, 1013.1,   73.9, -999.0
05-08-2023, 00:07:03,    289,    0.0,   12.5,   0.00,   0.00, 1013.1,   74.0, -999.0
05-08-2023, 00:07:13,    290,    0.0,   12.5,   0.00,   0.00, 1013.1,   74.0, -999.0
05-08-2023, 00:07:23,    289,    0.0,   12.5,   0.00,   0.00, 1013.1,   73.9, -999.0
05-08-2023, 00:07:33,    289,    0.0,   12.5,   0.00,   0.00, 1013.1,   73.6, -999.0
05-08-2023, 00:07:43,    288,    0.0,   12.4,   0.00,   0.00, 1013.1,   73.5, -999.0
05-08-2023, 00:07:53,    289,    0.0,   12.5,   0.00,   0.00, 1013.1,   73.5, -999.0
05-08-2023, 00:08:03,    288,    0.0,   12.4,   0.00,   0.00, 1013.1,   73.5, -999.0
05-08-2023, 00:08:13,    288,    0.0,   12.5,   0.00,   0.00, 1013.1,   73.5, -999.0
05-08-2023, 00:08:23,    288,    0.0,   12.5,   0.00,   0.00, 1013.1,   73.4, -999.0
05-08-2023, 00:08:33,    288,    0.0,   12.4,   0.00,   0.00, 1013.1,   73.2, -999.0
05-08-2023, 00:08:43,    173,    0.0,   12.4,   0.00,   0.00, 1013.1,   73.0, -999.0
05-08-2023, 00:08:52,    171,    0.0,   12.4,   0.00,   0.00, 1013.1,   72.9, -999.0
05-08-2023, 00:09:03,    171,    0.0,   12.3,   0.00,   0.00, 1013.0,   73.1, -999.0
05-08-2023, 00:09:13,    171,    0.0,   12.3,   0.00,   0.00, 1013.1,   73.4, -999.0
05-08-2023, 00:09:22,    171,    0.0,   12.3,   0.00,   0.00, 1013.0,   73.4, -999.0
05-08-2023, 00:09:32,    171,    0.0,   12.2,   0.00,   0.00, 1013.0,   73.5, -999.0
05-08-2023, 00:09:43,    170,    0.0,   12.2,   0.00,   0.00, 1013.0,   73.8, -999.0
05-08-2023, 00:09:52,    171,    0.0,   12.2,   0.00,   0.00, 1013.0,   74.1, -999.0
05-08-2023, 00:10:02,    168,    0.0,   12.2,   0.00,   0.00, 1013.0,   74.0, -999.0
05-08-2023, 00:10:13,    171,    0.0,   12.2,   0.00,   0.00, 1013.0,   74.2, -999.0
05-08-2023, 00:10:23,    171,    0.0,   12.2,   0.00,   0.00, 1013.0,   74.3, -999.0
05-08-2023, 00:10:32,    171,    0.0,   12.2,   0.00,   0.00, 1013.0,   74.4, -999.0
05-08-2023, 00:10:42,    171,    0.0,   12.2,   0.00,   0.00, 1013.0,   74.4, -999.0
05-08-2023, 00:10:53,    171,    0.0,   12.1,   0.00,   0.00, 1013.0,   74.5, -999.0
05-08-2023, 00:11:02,    171,    0.0,   12.2,   0.00,   0.00, 1013.0,   74.5, -999.0
05-08-2023, 00:11:12,    171,    0.0,   12.1,   0.00,   0.00, 1013.0,   74.5, -999.0
05-08-2023, 00:11:22,    171,    0.0,   12.1,   0.00,   0.00, 1013.0,   74.5, -999.0
05-08-2023, 00:11:32,    170,    0.0,   12.2,   0.00,   0.00, 1013.0,   74.5, -999.0
05-08-2023, 00:11:42,    171,    0.0,   12.1,   0.00,   0.00, 1013.0,   74.4, -999.0
05-08-2023, 00:11:52,    171,    0.0,   12.2,   0.00,   0.00, 1012.9,   74.2, -999.0
05-08-2023, 00:12:02,    171,    0.0,   12.1,   0.00,   0.00, 1013.0,   74.0, -999.0
05-08-2023, 00:12:12,    171,    0.0,   12.1,   0.00,   0.00, 1013.0,   73.9, -999.0
05-08-2023, 00:12:22,    171,    0.0,   12.1,   0.00,   0.00, 1013.0,   74.0, -999.0
05-08-2023, 00:12:32,    171,    0.0,   12.1,   0.00,   0.00, 1013.0,   74.0, -999.0
05-08-2023, 00:12:42,    171,    0.0,   12.1,   0.00,   0.00, 1012.9,   74.0, -999.0
05-08-2023, 00:12:52,    171,    0.0,   12.1,   0.00,   0.00, 1013.0,   74.3, -999.0
05-08-2023, 00:13:02,    170,    0.0,   12.1,   0.00,   0.00, 1013.0,   74.3, -999.0
05-08-2023, 00:13:12,    171,    0.0,   12.1,   0.00,   0.00, 1012.9,   74.4, -999.0
05-08-2023, 00:13:22,    171,    0.0,   12.2,   0.00,   0.00, 1012.9,   74.5, -999.0
05-08-2023, 00:13:32,    170,    0.0,   12.1,   0.00,   0.00, 1012.9,   74.6, -999.0
05-08-2023, 00:13:42,    171,    0.0,   12.1,   0.00,   0.00, 1012.9,   74.8, -999.0
05-08-2023, 00:13:52,    171,    0.0,   12.3,   0.00,   0.00, 1012.9,   74.8, -999.0
05-08-2023, 00:14:02,    171,    0.0,   12.2,   0.00,   0.00, 1012.9,   74.7, -999.0
05-08-2023, 00:14:12,    171,    0.0,   12.2,   0.00,   0.00, 1012.9,   74.6, -999.0
05-08-2023, 00:14:22,    171,    0.0,   12.1,   0.00,   0.00, 1012.8,   74.5, -999.0
05-08-2023, 00:14:32,    171,    0.0,   12.1,   0.00,   0.00, 1012.8,   74.5, -999.0
05-08-2023, 00:14:42,    171,    0.0,   12.1,   0.00,   0.00, 1012.8,   74.5, -999.0
05-08-2023, 00:14:52,    170,    0.0,   12.1,   0.00,   0.00, 1012.8,   74.6, -999.0
05-08-2023, 00:15:02,    171,    0.0,   12.1,   0.00,   0.00, 1012.8,   74.5, -999.0
05-08-2023, 00:15:12,    171,    0.0,   12.2,   0.00,   0.00, 1012.8,   74.6, -999.0
05-08-2023, 00:15:22,    171,    0.0,   12.2,   0.00,   0.00, 1012.8,   74.7, -999.0
05-08-2023, 00:15:32,    171,    0.0,   12.1,   0.00,   0.00, 1012.8,   74.5, -999.0
05-08-2023, 00:15:42,    171,    0.0,   12.2,   0.00,   0.00, 1012.8,   74.4, -999.0
05-08-2023, 00:15:51,    171,    0.0,   12.2,   0.00,   0.00, 1012.8,   74.5, -999.0
05-08-2023, 00:16:02,    171,    0.0,   12.1,   0.00,   0.00, 1012.8,   74.6, -999.0
05-08-2023, 00:16:12,    171,    0.0,   12.1,   0.00,   0.00, 1012.8,   74.5, -999.0
05-08-2023, 00:16:21,    171,    0.0,   12.1,   0.00,   0.00, 1012.8,   74.4, -999.0
05-08-2023, 00:16:31,    171,    0.0,   12.1,   0.00,   0.00, 1012.8,   74.2, -999.0
05-08-2023, 00:16:42,    171,    0.0,   12.1,   0.00,   0.00, 1012.8,   74.2, -999.0
05-08-2023, 00:16:52,    171,    0.0,   12.1,   0.00,   0.00, 1012.8,   74.2, -999.0
05-08-2023, 00:17:01,    171,    0.0,   12.1,   0.00,   0.00, 1012.8,   74.2, -999.0
05-08-2023, 00:17:11,    171,    0.0,   12.1,   0.00,   0.00, 1012.8,   74.1, -999.0
05-08-2023, 00:17:22,    171,    0.0,   12.1,   0.00,   0.00, 1012.8,   74.0, -999.0
05-08-2023, 00:17:31,    171,    0.0,   12.1,   0.00,   0.00, 1012.8,   73.8, -999.0
05-08-2023, 00:17:41,    171,    0.0,   12.1,   0.00,   0.00, 1012.8,   73.7, -999.0
05-08-2023, 00:17:51,    171,    0.0,   12.1,   0.00,   0.00, 1012.8,   73.6, -999.0
05-08-2023, 00:18:01,    171,    0.0,   12.0,   0.00,   0.00, 1012.8,   73.7, -999.0
05-08-2023, 00:18:11,    171,    0.0,   12.0,   0.00,   0.00, 1012.8,   73.7, -999.0
05-08-2023, 00:18:21,    171,    0.0,   12.2,   0.00,   0.00, 1012.8,   73.7, -999.0
05-08-2023, 00:18:31,    170,    0.0,   12.1,   0.00,   0.00, 1012.8,   73.7, -999.0
05-08-2023, 00:18:41,    171,    0.0,   12.1,   0.00,   0.00, 1012.8,   73.7, -999.0
05-08-2023, 00:18:51,    170,    0.0,   12.0,   0.00,   0.00, 1012.8,   73.8, -999.0
05-08-2023, 00:19:01,    171,    0.0,   12.1,   0.00,   0.00, 1012.8,   73.9, -999.0
05-08-2023, 00:19:11,    171,    0.0,   12.1,   0.00,   0.00, 1012.8,   74.0, -999.0
05-08-2023, 00:19:21,    171,    0.0,   12.1,   0.00,   0.00, 1012.8,   74.1, -999.0
05-08-2023, 00:19:31,    171,    0.0,   12.1,   0.00,   0.00, 1012.8,   74.1, -999.0
05-08-2023, 00:19:41,    171,    0.0,   12.0,   0.00,   0.00, 1012.8,   74.3, -999.0
05-08-2023, 00:19:51,    171,    0.0,   12.0,   0.00,   0.00, 1012.8,   74.5, -999.0
05-08-2023, 00:20:01,    171,    0.0,   12.1,   0.00,   0.00, 1012.8,   74.6, -999.0
05-08-2023, 00:20:11,    171,    0.0,   12.0,   0.00,   0.00, 1012.8,   74.7, -999.0
05-08-2023, 00:20:21,    171,    0.0,   12.1,   0.00,   0.00, 1012.8,   74.7, -999.0
05-08-2023, 00:20:31,    169,    0.0,   12.1,   0.00,   0.00, 1012.8,   74.8, -999.0
05-08-2023, 00:20:41,    171,    0.0,   12.1,   0.00,   0.00, 1012.8,   74.8, -999.0
05-08-2023, 00:20:51,    171,    0.0,   12.1,   0.00,   0.00, 1012.8,   74.8, -999.0
05-08-2023, 00:21:01,    171,    0.0,   12.1,   0.00,   0.00, 1012.8,   74.8, -999.0
05-08-2023, 00:21:11,    171,    0.0,   12.1,   0.00,   0.00, 1012.8,   74.8, -999.0
05-08-2023, 00:21:21,    171,    0.0,   12.0,   0.00,   0.00, 1012.8,   74.7, -999.0
05-08-2023, 00:21:31,    171,    0.0,   12.1,   0.00,   0.00, 1012.8,   74.6, -999.0
05-08-2023, 00:21:41,    171,    0.0,   12.1,   0.00,   0.00, 1012.8,   74.6, -999.0
05-08-2023, 00:21:51,    171,    0.0,   12.1,   0.00,   0.00, 1012.8,   74.5, -999.0
05-08-2023, 00:22:01,    171,    0.0,   12.1,   0.00,   0.00, 1012.8,   74.6, -999.0
05-08-2023, 00:22:11,    171,    0.0,   12.1,   0.00,   0.00, 1012.8,   74.7, -999.0
05-08-2023, 00:22:21,    171,    0.0,   12.1,   0.00,   0.00, 1012.8,   74.7, -999.0
05-08-2023, 00:22:31,    171,    0.0,   12.1,   0.00,   0.00, 1012.8,   74.7, -999.0
05-08-2023, 00:22:41,    171,    0.0,   12.1,   0.00,   0.00, 1012.8,   74.7, -999.0
05-08-2023, 00:22:50,    171,    0.0,   12.1,   0.00,   0.00, 1012.8,   74.7, -999.0
05-08-2023, 00:23:01,    171,    0.0,   12.1,   0.00,   0.00, 1012.8,   74.8, -999.0
05-08-2023, 00:23:11,    171,    0.0,   12.1,   0.00,   0.00, 1012.8,   74.9, -999.0
05-08-2023, 00:23:21,    171,    0.0,   12.1,   0.00,   0.00, 1012.8,   75.0, -999.0
05-08-2023, 00:23:30,    171,    0.0,   12.2,   0.00,   0.00, 1012.8,   74.9, -999.0
05-08-2023, 00:23:41,    171,    0.0,   12.1,   0.00,   0.00, 1012.8,   74.9, -999.0
05-08-2023, 00:23:51,    171,    0.0,   12.1,   0.00,   0.00, 1012.8,   74.9, -999.0
05-08-2023, 00:24:00,    171,    0.0,   12.1,   0.00,   0.00, 1012.7,   75.0, -999.0
05-08-2023, 00:24:10,    171,    0.0,   12.1,   0.00,   0.00, 1012.7,   74.9, -999.0
05-08-2023, 00:24:21,    171,    0.0,   12.1,   0.00,   0.00, 1012.7,   74.7, -999.0
05-08-2023, 00:24:32,    171,    0.0,   12.1,   0.00,   0.00, 1012.7,   74.9, -999.0
05-08-2023, 00:24:40,    170,    0.0,   12.1,   0.00,   0.00, 1012.7,   75.1, -999.0
05-08-2023, 00:24:50,    171,    0.0,   12.1,   0.00,   0.00, 1012.8,   75.2, -999.0
05-08-2023, 00:25:01,    171,    0.0,   12.1,   0.00,   0.00, 1012.7,   75.3, -999.0
05-08-2023, 00:25:10,    170,    0.0,   12.2,   0.00,   0.00, 1012.7,   75.5, -999.0
05-08-2023, 00:25:20,    171,    0.0,   12.1,   0.00,   0.00, 1012.7,   75.2, -999.0
05-08-2023, 00:25:30,    171,    0.0,   12.2,   0.00,   0.00, 1012.7,   75.1, -999.0
05-08-2023, 00:25:40,    171,    0.0,   12.2,   0.00,   0.00, 1012.7,   74.9, -999.0
05-08-2023, 00:25:50,    171,    0.0,   12.2,   0.00,   0.00, 1012.7,   74.8, -999.0
05-08-2023, 00:26:00,    171,    0.0,   12.2,   0.00,   0.00, 1012.7,   74.9, -999.0
05-08-2023, 00:26:10,    171,    0.0,   12.2,   0.00,   0.00, 1012.7,   74.8, -999.0
05-08-2023, 00:26:20,    171,    0.0,   12.2,   0.00,   0.00, 1012.6,   75.0, -999.0
05-08-2023, 00:26:30,    171,    0.0,   12.2,   0.00,   0.00, 1012.6,   75.1, -999.0
05-08-2023, 00:26:40,    171,    0.0,   12.3,   0.00,   0.00, 1012.6,   75.0, -999.0
05-08-2023, 00:26:50,    171,    0.0,   12.3,   0.00,   0.00, 1012.6,   74.9, -999.0
05-08-2023, 00:27:00,    171,    0.0,   12.2,   0.00,   0.00, 1012.6,   74.7, -999.0
05-08-2023, 00:27:10,    171,    0.0,   12.2,   0.00,   0.00, 1012.6,   74.6, -999.0
05-08-2023, 00:27:20,    171,    0.0,   12.3,   0.00,   0.00, 1012.6,   74.8, -999.0
05-08-2023, 00:27:30,    170,    0.0,   12.3,   0.00,   0.00, 1012.6,   74.7, -999.0
05-08-2023, 00:27:40,    171,    0.0,   12.3,   0.00,   0.00, 1012.6,   74.8, -999.0
05-08-2023, 00:27:50,    170,    0.0,   12.3,   0.00,   0.00, 1012.6,   74.9, -999.0
05-08-2023, 00:28:00,    170,    0.0,   12.3,   0.00,   0.00, 1012.6,   74.8, -999.0
05-08-2023, 00:28:10,    171,    0.0,   12.4,   0.00,   0.00, 1012.6,   74.8, -999.0
05-08-2023, 00:28:20,    171,    0.0,   12.4,   0.00,   0.00, 1012.6,   74.7, -999.0
05-08-2023, 00:28:30,    171,    0.0,   12.4,   0.00,   0.00, 1012.6,   74.3, -999.0
05-08-2023, 00:28:40,    171,    0.0,   12.4,   0.00,   0.00, 1012.6,   74.2, -999.0
05-08-2023, 00:28:50,    171,    0.0,   12.4,   0.00,   0.00, 1012.6,   74.1, -999.0
05-08-2023, 00:29:00,    171,    0.0,   12.4,   0.00,   0.00, 1012.6,   73.9, -999.0
05-08-2023, 00:29:10,    171,    0.0,   12.5,   0.00,   0.00, 1012.6,   73.9, -999.0
05-08-2023, 00:29:20,    171,    0.0,   12.5,   0.00,   0.00, 1012.6,   73.7, -999.0
05-08-2023, 00:29:30,    171,    0.0,   12.4,   0.00,   0.00, 1012.6,   73.7, -999.0
05-08-2023, 00:29:39,    172,    0.0,   12.4,   0.00,   0.00, 1012.6,   73.7, -999.0
05-08-2023, 00:29:50,    171,    0.0,   12.5,   0.00,   0.00, 1012.6,   73.6, -999.0
05-08-2023, 00:30:00,    171,    0.0,   12.5,   0.00,   0.00, 1012.6,   73.6, -999.0
05-08-2023, 00:30:10,    171,    0.0,   12.5,   0.00,   0.00, 1012.6,   73.5, -999.0
05-08-2023, 00:30:19,    170,    0.0,   12.4,   0.00,   0.00, 1012.6,   73.3, -999.0
05-08-2023, 00:30:30,    171,    0.0,   12.5,   0.00,   0.00, 1012.6,   73.5, -999.0
05-08-2023, 00:30:40,    171,    0.0,   12.5,   0.00,   0.00, 1012.6,   73.5, -999.0
05-08-2023, 00:30:49,    172,    0.0,   12.5,   0.00,   0.00, 1012.6,   73.9, -999.0
05-08-2023, 00:30:59,    172,    0.0,   12.5,   0.00,   0.00, 1012.6,   74.2, -999.0
05-08-2023, 00:31:10,    170,    0.0,   12.5,   0.00,   0.00, 1012.6,   74.5, -999.0
05-08-2023, 00:31:19,    171,    0.0,   12.5,   0.00,   0.00, 1012.6,   74.5, -999.0
05-08-2023, 00:31:29,    171,    0.0,   12.5,   0.00,   0.00, 1012.6,   74.6, -999.0
05-08-2023, 00:31:39,    171,    0.0,   12.4,   0.00,   0.00, 1012.6,   74.5, -999.0
05-08-2023, 00:31:49,    171,    0.0,   12.5,   0.00,   0.00, 1012.6,   74.5, -999.0
05-08-2023, 00:31:59,    171,    0.0,   12.5,   0.00,   0.00, 1012.6,   74.5, -999.0
05-08-2023, 00:32:09,    171,    0.0,   12.4,   0.00,   0.00, 1012.6,   74.6, -999.0
05-08-2023, 00:32:19,    171,    0.0,   12.4,   0.00,   0.00, 1012.5,   74.5, -999.0
05-08-2023, 00:32:29,    171,    0.0,   12.4,   0.00,   0.00, 1012.6,   74.5, -999.0
05-08-2023, 00:32:39,    171,    0.0,   12.4,   0.00,   0.00, 1012.5,   74.5, -999.0
05-08-2023, 00:32:49,    170,    0.0,   12.5,   0.00,   0.00, 1012.6,   74.3, -999.0
05-08-2023, 00:32:59,    170,    0.0,   12.4,   0.00,   0.00, 1012.6,   74.1, -999.0
05-08-2023, 00:33:09,    171,    0.0,   12.4,   0.00,   0.00, 1012.6,   74.1, -999.0
05-08-2023, 00:33:19,    171,    0.0,   12.3,   0.00,   0.00, 1012.6,   73.9, -999.0
05-08-2023, 00:33:29,    171,    0.0,   12.3,   0.00,   0.00, 1012.6,   73.9, -999.0
05-08-2023, 00:33:39,    171,    0.0,   12.3,   0.00,   0.00, 1012.5,   74.0, -999.0
05-08-2023, 00:33:49,    171,    0.0,   12.3,   0.00,   0.00, 1012.5,   74.2, -999.0
05-08-2023, 00:33:59,    171,    0.0,   12.3,   0.00,   0.00, 1012.6,   74.7, -999.0
05-08-2023, 00:34:09,    171,    0.0,   12.2,   0.00,   0.00, 1012.5,   75.4, -999.0
05-08-2023, 00:34:19,    171,    0.0,   12.2,   0.00,   0.00, 1012.5,   76.3, -999.0
05-08-2023, 00:34:29,    171,    0.0,   12.2,   0.00,   0.00, 1012.5,   76.7, -999.0
05-08-2023, 00:34:39,    171,    0.0,   12.2,   0.00,   0.00, 1012.5,   76.8, -999.0
05-08-2023, 00:34:49,    171,    0.0,   12.1,   0.00,   0.00, 1012.6,   76.9, -999.0
05-08-2023, 00:34:59,    171,    0.0,   12.0,   0.00,   0.00, 1012.6,   77.0, -999.0
05-08-2023, 00:35:09,    171,    0.0,   12.1,   0.00,   0.00, 1012.6,   77.0, -999.0
05-08-2023, 00:35:19,    171,    0.0,   12.1,   0.00,   0.00, 1012.5,   77.1, -999.0
05-08-2023, 00:35:29,    171,    0.0,   12.0,   0.00,   0.00, 1012.5,   77.0, -999.0
05-08-2023, 00:35:39,    171,    0.0,   12.0,   0.00,   0.00, 1012.5,   77.1, -999.0
05-08-2023, 00:35:49,    171,    0.0,   12.0,   0.00,   0.00, 1012.5,   77.6, -999.0
05-08-2023, 00:35:59,    171,    0.0,   11.8,   0.00,   0.00, 1012.5,   77.7, -999.0
05-08-2023, 00:36:09,    171,    0.0,   11.9,   0.00,   0.00, 1012.5,   77.4, -999.0
05-08-2023, 00:36:19,    171,    0.0,   11.9,   0.00,   0.00, 1012.5,   77.4, -999.0
05-08-2023, 00:36:29,    171,    0.0,   11.9,   0.00,   0.00, 1012.5,   77.5, -999.0
05-08-2023, 00:36:39,    171,    0.0,   11.9,   0.00,   0.00, 1012.5,   77.5, -999.0
05-08-2023, 00:36:48,    171,    0.0,   11.9,   0.00,   0.00, 1012.5,   77.9, -999.0
05-08-2023, 00:36:59,    171,    0.0,   11.9,   0.00,   0.00, 1012.4,   78.1, -999.0
05-08-2023, 00:37:09,    171,    0.0,   11.9,   0.00,   0.00, 1012.4,   78.3, -999.0
05-08-2023, 00:37:18,    171,    0.0,   12.0,   0.00,   0.00, 1012.4,   78.3, -999.0
05-08-2023, 00:37:28,    171,    0.0,   11.9,   0.00,   0.00, 1012.4,   78.4, -999.0
05-08-2023, 00:37:39,    171,    0.0,   12.0,   0.00,   0.00, 1012.4,   78.5, -999.0
05-08-2023, 00:37:50,    170,    0.0,   12.0,   0.00,   0.00, 1012.4,   78.2, -999.0
05-08-2023, 00:37:58,    171,    0.0,   11.9,   0.00,   0.00, 1012.4,   77.9, -999.0
05-08-2023, 00:38:08,    171,    0.0,   11.9,   0.00,   0.00, 1012.4,   77.6, -999.0
05-08-2023, 00:38:19,    171,    0.0,   11.9,   0.00,   0.00, 1012.4,   77.8, -999.0
05-08-2023, 00:38:28,    171,    0.0,   11.9,   0.00,   0.00, 1012.4,   78.1, -999.0
05-08-2023, 00:38:38,    171,    0.0,   12.0,   0.00,   0.00, 1012.4,   78.4, -999.0
05-08-2023, 00:38:48,    171,    0.0,   12.0,   0.00,   0.00, 1012.4,   78.7, -999.0
05-08-2023, 00:38:58,    171,    0.0,   12.0,   0.00,   0.00, 1012.4,   79.1, -999.0
05-08-2023, 00:39:08,    171,    0.0,   11.9,   0.00,   0.00, 1012.4,   79.4, -999.0
05-08-2023, 00:39:18,    171,    0.0,   12.0,   0.00,   0.00, 1012.4,   79.6, -999.0
05-08-2023, 00:39:28,    171,    0.0,   12.0,   0.00,   0.00, 1012.4,   79.7, -999.0
05-08-2023, 00:39:38,    168,    0.0,   12.0,   0.00,   0.00, 1012.4,   79.7, -999.0
05-08-2023, 00:39:48,    171,    0.0,   12.0,   0.00,   0.00, 1012.4,   79.5, -999.0
05-08-2023, 00:39:58,    171,    0.0,   11.9,   0.00,   0.00, 1012.3,   79.4, -999.0
05-08-2023, 00:40:08,    171,    0.0,   12.0,   0.00,   0.00, 1012.3,   79.5, -999.0
05-08-2023, 00:40:18,    171,    0.0,   12.0,   0.00,   0.00, 1012.3,   79.9, -999.0
05-08-2023, 00:40:28,    171,    0.0,   11.9,   0.00,   0.00, 1012.3,   79.9, -999.0
05-08-2023, 00:40:38,    171,    0.0,   12.0,   0.00,   0.00, 1012.3,   80.0, -999.0
05-08-2023, 00:40:48,    171,    0.0,   12.0,   0.00,   0.00, 1012.3,   80.1, -999.0
05-08-2023, 00:40:58,    171,    0.0,   12.0,   0.00,   0.00, 1012.3,   80.2, -999.0
05-08-2023, 00:41:08,    171,    0.0,   12.1,   0.00,   0.00, 1012.3,   80.4, -999.0
05-08-2023, 00:41:18,    171,    0.0,   12.1,   0.00,   0.00, 1012.3,   80.8, -999.0
05-08-2023, 00:41:28,    171,    0.0,   12.1,   0.00,   0.00, 1012.3,   81.0, -999.0
05-08-2023, 00:41:38,    171,    0.0,   12.2,   0.00,   0.00, 1012.3,   80.9, -999.0
05-08-2023, 00:41:48,    171,    0.0,   12.2,   0.00,   0.00, 1012.3,   80.2, -999.0
05-08-2023, 00:41:58,    171,    0.0,   12.3,   0.00,   0.00, 1012.3,   79.4, -999.0
05-08-2023, 00:42:08,    171,    0.0,   12.2,   0.00,   0.00, 1012.2,   79.3, -999.0
05-08-2023, 00:42:18,    171,    0.0,   12.2,   0.00,   0.00, 1012.2,   79.0, -999.0
05-08-2023, 00:42:28,    171,    0.0,   12.2,   0.00,   0.00, 1012.2,   78.9, -999.0
05-08-2023, 00:42:38,    171,    0.0,   12.3,   0.00,   0.00, 1012.2,   78.9, -999.0
05-08-2023, 00:42:48,    171,    0.0,   12.3,   0.00,   0.00, 1012.2,   78.8, -999.0
05-08-2023, 00:42:58,    171,    0.0,   12.3,   0.00,   0.00, 1012.2,   78.7, -999.0
05-08-2023, 00:43:08,    171,    0.0,   12.3,   0.00,   0.00, 1012.2,   78.7, -999.0
05-08-2023, 00:43:18,    171,    0.0,   12.3,   0.00,   0.00, 1012.2,   78.6, -999.0
05-08-2023, 00:43:27,    171,    0.0,   12.4,   0.00,   0.00, 1012.2,   78.7, -999.0
05-08-2023, 00:43:38,    171,    0.0,   12.3,   0.00,   0.00, 1012.2,   78.6, -999.0
05-08-2023, 00:43:48,    171,    0.0,   12.3,   0.00,   0.00, 1012.1,   78.5, -999.0
05-08-2023, 00:43:58,    171,    0.0,   12.3,   0.00,   0.00, 1012.1,   78.5, -999.0
05-08-2023, 00:44:07,    171,    0.0,   12.3,   0.00,   0.00, 1012.1,   78.4, -999.0
05-08-2023, 00:44:18,    171,    0.0,   12.3,   0.00,   0.00, 1012.1,   78.4, -999.0
05-08-2023, 00:44:28,    171,    0.0,   12.3,   0.00,   0.00, 1012.1,   78.2, -999.0
05-08-2023, 00:44:37,    170,    0.0,   12.3,   0.00,   0.00, 1012.1,   78.1, -999.0
05-08-2023, 00:44:47,    171,    0.0,   12.2,   0.00,   0.00, 1012.1,   77.9, -999.0
05-08-2023, 00:44:58,    171,    0.0,   12.1,   0.00,   0.00, 1012.1,   77.8, -999.0
05-08-2023, 00:45:07,    171,    0.0,   12.2,   0.00,   0.00, 1012.1,   77.8, -999.0
05-08-2023, 00:45:18,    170,    0.0,   12.2,   0.00,   0.00, 1012.1,   77.7, -999.0
05-08-2023, 00:45:27,    171,    0.0,   12.2,   0.00,   0.00, 1012.0,   77.8, -999.0
05-08-2023, 00:45:38,    171,    0.0,   12.2,   0.00,   0.00, 1012.0,   78.0, -999.0
05-08-2023, 00:45:47,    171,    0.0,   12.2,   0.00,   0.00, 1012.0,   78.0, -999.0
05-08-2023, 00:45:57,    171,    0.0,   12.2,   0.00,   0.00, 1012.0,   77.9, -999.0
05-08-2023, 00:46:07,    171,    0.0,   12.2,   0.00,   0.00, 1012.1,   77.9, -999.0
05-08-2023, 00:46:17,    171,    0.0,   12.2,   0.00,   0.00, 1012.0,   77.9, -999.0
05-08-2023, 00:46:27,    171,    0.0,   12.2,   0.00,   0.00, 1012.0,   77.9, -999.0
05-08-2023, 00:46:37,    171,    0.0,   12.2,   0.00,   0.00, 1012.0,   77.9, -999.0
05-08-2023, 00:46:47,    171,    0.0,   12.2,   0.00,   0.00, 1012.0,   77.9, -999.0